Hourly Data Report for October 28, 2016

All times are specified in Local Standard Time (LST). Add 1 hour to adjust for Daylight Saving Time where and when it is observed.

KUGAARUK CLIMATE
NUNAVUT

68°32'15.060" N
89°47'47.020" W
15.80 m
2303094
71407
NBB

Download Data

Hourly Data (October 2016)
Hourly Data Report for October 28, 2016
Temp Definition
°C
Dew Point Temp Definition
°C
Rel Hum Definition
%
Wind Dir Definition
10's deg

Wind Spd Definition
km/h
Visibility Definition
km
Stn Press Definition
kPa
Hmdx Definition


Wind Chill Definition


Weather Definition


TIME
00:00 -14.4 -16.4 84 31 25   101.29   -24 LegendNANA
01:00 -14.4 -16.5 84 30 25   101.30   -24 LegendNANA
02:00 -14.6 -16.8 83 30 25   101.29   -25 LegendNANA
03:00 -13.6 -15.7 84 30 25   101.26   -23 LegendNANA
04:00 -13.3 -15.7 82 30 25   101.22   -23 LegendNANA
05:00 -12.7 -15.1 82 30 28   101.18   -23 LegendNANA
06:00 -12.1 -14.5 82 30 27   101.15   -22 LegendNANA
07:00 -11.4 -13.9 81 31 24   101.09   -20 LegendNANA
08:00 -11.6 -14.0 82 30 24   101.03   -21 LegendNANA
09:00 -11.4 -13.9 82 30 21   100.98   -20 LegendNANA
10:00 -11.0 -13.4 83 30 22   100.92   -20 LegendNANA
11:00 -11.8 -14.1 83 28 29   100.85   -22 LegendNANA
12:00 -10.9 -13.3 83 28 22   100.78   -19 LegendNANA
13:00 -10.1 -12.4 84 29 27   100.68   -19 LegendNANA
14:00 -10.0 -11.9 86 30 33   100.60   -20 LegendNANA
15:00 -9.9 -11.3 89 31 31   100.51   -20 LegendNANA
16:00 -9.8 -11.2 90 31 39   100.40   -20 LegendNANA
17:00 -9.9 -11.3 90 31 36   100.36   -20 LegendNANA
18:00 -10.1 -11.4 90 30 37   100.27   -21 LegendNANA
19:00 -10.3 -11.6 90 29 22   100.25   -19 LegendNANA
20:00 -10.4 -11.8 89 6 17   100.18   -18 LegendNANA
21:00 -11.5 -12.9 89 6 8   100.19   -16 LegendNANA
22:00 -13.0 -14.6 87 7 8   100.15   -18 LegendNANA
23:00 -12.8 -14.4 88 2 24   100.10   -22 LegendNANA

Notes on Data Quality.

Legend

  • E = Estimated
  • M = Missing
  • NA = Not Available
  • ‡ = Partner data that is not subject to review by the National Climate Archives
Date modified: